{"data":{"norad_id":81134,"epoch":"2026-05-24T01:22:05.430720Z","epoch_age_seconds":157357,"freshness":"FRESH","line1":"1 81134U          26144.05700730  .00000107  00000+0  36457-3 0  9991","line2":"2 81134  90.2522   7.7392 0024899 328.4918  31.4708 12.93039514483582","mean_motion":12.93039514,"eccentricity":0.0024899,"inclination_deg":90.2522,"raan_deg":7.7392,"arg_perigee_deg":328.4918,"mean_anomaly_deg":31.4708,"bstar":0.00036457,"rev_number":48358,"period_min":111.36550618978,"perigee_km":1270.3924851187,"apogee_km":1308.575704647,"semimajor_km":7667.6210948828,"source":"CELESTRAK","updated_at":"2026-05-25T13:38:09.446698Z"}}